Location: Boulogne
(50.0787°N, 3.8937°E)
Time: 23:11:45
(UTC+00:00)

Daily predictions for brighter satellites

Satellite Brightness Start Highest point End
(mag) Time Altitude Azimuth Time Altitude Azimuth Time Altitude Azimuth
CENTAUR R/B 2.7 16:11:11 10° SW 16:16:53 80° NW 16:24:11 10° NE
Cosmos 1455 Rocket 3.3 16:17:25 10° SSW 16:21:43 74° W 16:26:07 10° N
Cosmos 1602 Rocket 4.3 16:18:50 10° N 16:22:44 30° ENE 16:26:35 10° SE
Cosmos 2279 Rocket 4.2 16:18:14 10° SSE 16:24:10 50° E 16:30:10 10° NNE
Cosmos 1570 Rocket 4.0 16:20:44 10° NNW 16:26:07 82° ENE 16:31:26 10° SSE
Cosmos 1092 Rocket 4.2 16:20:42 10° N 16:26:53 81° W 16:33:01 10° S
Cosmos 836 Rocket 4.5 16:24:08 10° NNW 16:29:24 79° ENE 16:34:40 10° SSE
SMAP 3.3 16:26:27 10° SE 16:30:53 46° ENE 16:35:21 10° N
Cosmos 1656 4.0 16:26:11 10° S 16:31:34 51° ESE 16:37:04 10° NE
UNK 4.4 16:28:32 10° NNE 16:32:47 36° E 16:36:58 10° SSE
YAOGAN 1 4.2 16:32:56 10° E 16:35:04 14° ENE 16:37:14 10° NNE
NOSS 2-2 (C) 2.7 16:31:55 10° SW 16:35:08 77° NW 16:38:06 10° NE
Cosmos 2228 2.9 16:31:07 10° S 16:35:20 82° E 16:39:38 10° NNE
Cosmos 1867 3.9 16:30:04 10° NNW 16:35:20 45° NE 16:40:33 10° ESE
Landsat 7 4.2 16:32:03 10° SE 16:36:24 41° ENE 16:40:45 10° N
SAR-Lupe-4 4.3 16:33:31 10° SE 16:36:41 31° ENE 16:39:52 10° N
Cosmos 1486 Rocket 4.5 16:31:54 10° S 16:36:45 41° ESE 16:41:40 10° NE
Cosmos 2297 Rocket 2.2 16:33:53 10° NNW 16:39:33 67° ENE 16:45:11 10° SE
USA 290 2.5 16:36:33 10° NNW 16:39:42 46° ENE 16:42:51 10° SE
USA 215 3.7 16:35:36 10° ENE 16:41:51 50° N 16:48:08 10° WNW
Cosmos 773 Rocket 4.0 16:37:42 10° NNW 16:42:56 82° ENE 16:48:11 10° SSE
Cosmos 1782 2.6 16:42:16 10° S 16:45:48 56° E 16:49:20 10° NNE
ATLAS CENTAUR R/B 0.9 16:43:16 10° NW 16:46:31 73° SW 16:49:41 10° SSE
CZ-4C R/B 2.9 16:40:38 10° NW 16:47:17 68° NE 16:55:40 10° SE
Cosmos 1607 3.9 16:42:26 10° NW 16:48:41 78° NE 16:54:59 10° SE
Cosmos 1733 0.9 16:47:58 10° N 16:49:35 84° WSW 16:51:09 10° S
CZ-2D R/B 3.1 16:49:14 10° SE 16:52:11 39° ENE 16:55:09 10° N
Lacrosse 4 Rocket 2.8 16:51:22 10° WSW 16:55:00 31° NW 16:58:37 10° NNE
IRS-P3 4.4 16:50:12 10° SE 16:55:15 46° ENE 17:00:19 10° N
Cosmos 2219 4.3 16:51:20 10° NNW 16:55:56 24° NE 16:59:37 14° E
Cosmos 1825 Rocket 4.2 16:52:35 10° N 16:56:33 33° ENE 17:00:27 10° SE
ARIANE 5 R/B 2.5 16:51:57 10° SSE 16:56:56 63° ENE 17:02:01 10° N
Cosmos 1758 Rocket 3.6 16:54:33 10° NNW 16:58:53 82° W 17:03:10 10° S
Cosmos 1315 Rocket 4.0 16:55:18 10° SW 16:58:56 41° WNW 17:02:36 10° N
Cosmos 2266 Rocket 4.0 16:52:53 10° N 16:59:00 60° ENE 17:04:59 10° SSE
Cosmos 2098 Rocket 3.0 16:58:08 10° S 17:02:11 73° E 17:07:01 10° NNE
Cosmos 2208 Rocket 4.3 16:57:27 10° NNW 17:02:37 71° WSW 17:07:45 10° SSE
Cosmos 2151 2.8 17:00:06 10° N 17:04:16 70° E 17:08:24 10° SSE
Cosmos 1743 2.2 17:01:41 10° N 17:04:57 90° W 17:08:12 10° S
SPOT 1/Viking Rocket 3.9 17:02:09 10° SE 17:06:58 40° ENE 17:11:48 10° N
Cosmos 1980 Rocket 3.6 17:03:31 10° SE 17:07:04 17° E 17:08:01 17° E
Cosmos 1844 Rocket 4.4 17:07:01 10° N 17:10:04 14° NNE 17:10:59 14° NE
SL-16 R/B 3.0 17:09:32 10° NNE 17:15:41 62° WNW 17:21:47 10° SW
Cosmos 2263 Rocket 2.6 17:12:30 10° NNW 17:17:49 40° NE 17:23:08 10° ESE
NOSS 3-2 (C) 3.2 17:14:09 10° SSW 17:19:05 59° SE 17:23:02 20° NE
NOSS 3-2 (A) 3.4 17:14:03 10° SW 17:19:10 69° NW 17:24:05 16° NE
Cosmos 783 Rocket 4.5 17:18:23 10° NNW 17:23:44 85° ENE 17:29:02 10° SSE
CZ-4 R/B 4.5 17:19:57 10° SE 17:23:44 48° ENE 17:27:34 10° N
GEOS 3 Rocket 3.7 17:19:36 16° NE 17:23:55 82° NW 17:29:18 10° SW
MOS 1 Rocket 3.4 17:19:17 10° SSE 17:24:09 78° ENE 17:29:21 10° N
BREEZE M DEB (TANK) 2.8 17:23:06 10° SW 17:25:11 28° SSE 17:25:20 28° SSE
Cosmos 1076 Rocket 3.8 17:21:52 10° N 17:25:58 41° ENE 17:30:02 10° SE
AQUARIUS 4.0 17:22:45 10° SSE 17:27:10 88° ENE 17:31:36 10° NNW
Cosmos 1933 3.2 17:24:34 10° S 17:28:21 58° E 17:30:45 21° NNE
SJ-12 3.9 17:26:18 10° S 17:30:04 71° WSW 17:33:52 10° NNW
Cosmos 2084 Rocket 3.6 17:26:20 10° NW 17:30:33 72° SW 17:34:44 10° SE
Cosmos 2227 Rocket 2.1 17:25:05 10° NNW 17:30:45 73° ENE 17:36:24 10° SE
Cosmos 1538 Rocket 4.3 17:26:40 10° NNW 17:31:43 43° ENE 17:36:28 12° SE
Cosmos 1606 Rocket 3.5 17:27:29 10° S 17:31:49 60° E 17:35:23 15° NNE
BlueWalker 3 4.4 17:29:17 10° W 17:32:01 20° SW 17:34:45 10° S
Cosmos 2360 4.3 17:26:54 10° SSW 17:32:38 81° WNW 17:37:26 15° NNE
Cosmos 1900 4.4 17:28:09 10° NW 17:33:14 81° SW 17:38:11 10° SSE
Cosmos 2369 Rocket 4.4 17:32:21 10° WNW 17:35:49 16° NNW 17:39:18 10° N
PSLV R/B 3.8 17:36:04 34° E 17:36:53 38° ENE 17:40:40 10° N
CZ-2D R/B 3.5 17:33:31 10° SSE 17:37:37 54° ENE 17:41:41 10° N
COSMO-SKYMED 1 3.3 17:39:14 30° ESE 17:39:14 30° ESE 17:42:18 10° SSE
NOSS 2-2 (D) 3.8 17:36:06 10° WSW 17:39:05 36° NW 17:40:03 28° N
SL-19 R/B 4.3 17:36:12 10° SE 17:41:23 52° ENE 17:46:53 10° N
Resurs 1-3 3.7 17:37:31 10° SE 17:41:39 48° ENE 17:45:49 10° N
Cosmos 1503 Rocket 3.9 17:37:02 10° SSW 17:42:17 88° WNW 17:46:10 18° NNE
BREEZE-M DEB (TANK) 3.6 17:39:38 10° W 17:42:57 82° S 17:48:33 22° ESE
Meteor 2-20 4.5 17:41:33 10° SSE 17:47:31 55° E 17:53:30 10° NNE
Cosmos 1697 Rocket 2.6 17:42:10 10° SSW 17:47:44 69° ESE 17:50:44 28° NE
Okean 1-7 Rocket 4.1 17:44:55 10° NNW 17:49:15 58° W 17:53:31 10° S
Lacrosse 5 rocket 2.2 17:46:10 10° WNW 17:49:29 30° N 17:49:58 29° N
Cosmos 1354 Rocket 3.9 17:45:17 10° SSW 17:50:32 79° ESE 17:53:34 26° NNE
BREEZE-M DEB (TANK) 3.9 17:48:43 10° WNW 17:52:11 72° N 17:57:03 28° E
Cosmos 1461 2.7 17:49:30 10° SW 17:53:24 82° NW 17:54:18 52° NNE
NOSS 2-2 (E) 3.9 17:51:03 10° WSW 17:53:58 33° NW 17:54:24 31° NNW
Spot 4 Rocket 3.9 17:50:20 10° SSE 17:55:24 73° ENE 18:00:32 10° NNW
IRAS Rocket 4.1 17:51:13 10° SSE 17:56:37 66° ENE 18:02:04 10° NNW
Cosmos 1726 Rocket 3.5 17:52:27 10° S 17:57:05 80° E 17:59:49 25° NNE
Cosmos 1655 Rocket 3.9 17:54:04 10° N 18:00:22 89° E 18:06:35 10° S
SKYMED 2 3.4 17:59:36 38° NNE 18:01:14 79° ESE 18:05:34 10° S
Gbstr 26 Del rocket 3.2 17:59:01 10° SW 18:02:38 45° SSE 18:02:38 45° SSE
Meteor 2-10 4.0 18:02:15 10° N 18:07:35 72° ENE 18:13:05 10° SSE
CENTAUR R/B 3.8 18:02:51 10° W 18:08:37 34° NNW 18:12:28 22° NNE
Meteor 2-20 Rocket 4.4 18:03:32 10° S 18:09:38 58° E 18:12:30 31° NNE
YAOGAN 1 2.4 18:06:03 10° SSE 18:10:19 86° WSW 18:14:37 10° NNW
USA 281 4.3 18:17:15 25° NNE 18:17:15 25° NNE 18:21:27 10° NNW
Cosmos 2082 3.7 18:11:07 10° NNW 18:16:45 57° NE 18:17:04 56° ENE
Meteor 1-26 Rocket 4.2 18:13:19 10° S 18:18:03 54° ESE 18:18:03 54° ESE
USA 238 DEB 3.6 18:13:19 10° SSW 18:19:12 53° ESE 18:19:57 51° E
USA 238 3.6 18:13:25 10° SSW 18:19:19 53° ESE 18:20:02 50° E
Resurs 01 Rocket 4.1 18:25:01 11° N 18:25:01 11° N 18:25:12 10° N
Cosmos 1953 Rocket 4.1 18:19:12 10° NNW 18:23:34 60° W 18:27:56 10° S
USA 215 3.4 18:22:49 47° ENE 18:24:21 58° NNE 18:30:45 10° WNW
Cosmos 372 Rocket 4.3 18:22:23 10° S 18:26:26 50° SSE 18:26:26 50° SSE
Aureole 1 Rocket 3.8 18:24:11 10° SSW 18:27:16 47° S 18:27:16 47° S
CZ-4C R/B 4.2 18:28:58 10° NW 18:35:38 41° WSW 18:43:34 10° S
USA 81 4.4 18:31:56 10° NNW 18:37:10 65° W 18:42:21 10° S
NOAA 6 4.2 18:35:37 10° S 18:40:42 69° WSW 18:45:49 10° NNW
Cosmos 2219 3.1 18:35:03 10° NNW 18:40:49 86° WSW 18:41:35 68° SSE
Cosmos 1980 Rocket 2.2 18:44:36 10° SSW 18:49:48 76° SW 18:49:48 76° SW
Cosmos 2058 Rocket 4.4 18:49:09 10° SSW 18:51:55 35° SW 18:51:55 35° SW
Cosmos 1844 Rocket 4.1 18:49:58 10° NNW 18:52:38 26° N 18:52:38 26° N
Cosmos 2263 Rocket 3.2 18:56:27 10° NW 19:01:48 44° WSW 19:04:58 23° SSW
Cosmos 1553 Rocket 4.0 19:00:34 10° SSW 19:06:42 75° W 19:06:49 75° WNW
NOSS 3-2 (C) 4.2 19:05:09 10° W 19:10:13 40° NNW 19:10:27 39° NNW
Cosmos 2227 Rocket 4.5 19:10:03 10° NW 19:14:12 21° W 19:18:20 10° SSW
Cosmos 1697 Rocket 4.3 19:27:25 10° WSW 19:32:11 28° NW 19:32:29 28° NW
CENTAUR R/B 4.3 19:55:08 10° NW 19:59:34 28° NNW 19:59:34 28° NNW
USA 215 4.5 20:10:10 36° WNW 20:10:10 36° WNW 20:13:51 10° WNW
